EW1090 Weather Reports


time (UTC)temp
F
wind
direction
speed
knots
gust
knots
rain 1hr
in
rain 24hr
in
rain mn
in
humidity
%
barometer
mb
20211026190320 80 5 2.6 6.1 0.00 0.00 0.00 71 1013.8
20211026185308 79 13 2.6 6.1 0.00 0.00 0.00 71 1013.9
20211026184824 79 360 0.9 6.1 0.00 0.00 0.00 73 1014.0
20211026184324 78 79 2.6 7.0 0.00 0.00 0.00 72 1014.0
20211026183819 79 360 3.5 7.0 0.00 0.00 0.00 71 1014.1
20211026183316 79 22 2.6 7.0 0.00 0.00 0.00 72 1014.2
20211026182813 78 57 1.7 7.0 0.00 0.00 0.00 72 1014.3
20211026182312 78 19 2.6 6.1 0.00 0.00 0.00 71 1014.4
20211026181810 79 5 1.7 4.3 0.00 0.00 0.00 71 1014.6
20211026181310 78 55 0.9 6.1 0.00 0.00 0.00 72 1014.7
20211026180810 79 5 2.6 6.1 0.00 0.00 0.00 71 1014.9
20211026180308 79 55 1.7 5.2 0.00 0.00 0.00 72 1015.0
20211026175807 79 51 1.7 5.2 0.00 0.00 0.00 71 1015.2
20211026175306 79 28 1.7 6.1 0.00 0.00 0.00 71 1015.2
20211026174806 79 60 1.7 6.1 0.00 0.00 0.00 71 1015.4
20211026174324 79 5 0.9 6.1 0.00 0.00 0.00 71 1015.4
20211026173823 79 16 1.7 6.1 0.00 0.00 0.00 71 1015.4
20211026173321 79 306 0.9 6.1 0.00 0.00 0.00 72 1015.4
20211026172821 79 355 2.6 6.1 0.00 0.00 0.00 70 1015.5
20211026172321 78 355 1.7 6.1 0.00 0.00 0.00 71 1015.6
20211026171818 78 35 2.6 6.1 0.00 0.00 0.00 71 1015.6
20211026171316 78 36 2.6 5.2 0.00 0.00 0.00 71 1015.7
20211026170815 78 5 1.7 6.1 0.00 0.00 0.00 71 1015.8
20211026170311 78 20 0.9 6.1 0.00 0.00 0.00 71 1015.8
20211026165811 78 355 1.7 6.1 0.00 0.00 0.00 71 1015.8
20211026165311 78 21 3.5 6.1 0.00 0.00 0.00 70 1015.8
20211026164811 79 19 0.9 7.0 0.00 0.00 0.00 71 1015.9
20211026164310 79 24 1.7 7.0 0.00 0.00 0.00 70 1016.0
20211026163810 79 48 0.9 4.3 0.00 0.00 0.00 70 1016.1
20211026163325 79 99 0.9 6.1 0.00 0.00 0.00 70 1016.1
20211026162821 79 34 0.9 6.1 0.00 0.00 0.00 69 1016.2
20211026162320 79 106 0.0 4.3 0.00 0.00 0.00 68 1016.2
20211026161819 78 57 0.9 4.3 0.00 0.00 0.00 69 1016.3
20211026161319 78 78 0.9 3.5 0.00 0.00 0.00 70 1016.3
20211026160306 78 62 0.0 3.5 0.00 0.00 0.00 68 1016.3
20211026155825 78 105 1.7 4.3 0.00 0.00 0.00 69 1016.4
20211026155319 78 20 1.7 4.3 0.00 0.00 0.00 68 1016.4
20211026154815 78 59 0.9 3.5 0.00 0.00 0.00 68 1016.4
20211026154311 77 97 0.0 2.6 0.00 0.00 0.00 71 1016.5
20211026153810 77 84 0.0 2.6 0.00 0.00 0.00 71 1016.6
20211026153327 77 71 0.9 2.6 0.00 0.00 0.00 70 1016.7
20211026152824 76 81 0.9 2.6 0.00 0.00 0.00 70 1016.8
20211026152319 76 184 0.0 4.3 0.00 0.00 0.00 72 1016.9
20211026151815 75 113 0.9 4.3 0.00 0.00 0.00 72 1016.9
20211026151313 75 36 0.0 2.6 0.00 0.00 0.00 73 1017.0
20211026150809 75 128 0.0 1.7 0.00 0.00 0.00 73 1016.9
20211026150306 74 56 0.0 3.5 0.00 0.00 0.00 73 1016.9
20211026145819 74 30 0.9 3.5 0.00 0.00 0.00 72 1016.9
20211026145318 74 106 0.9 4.3 0.00 0.00 0.00 75 1016.9
20211026144816 73 67 0.0 4.3 0.00 0.00 0.00 75 1016.8
20211026144312 73 106 1.7 6.1 0.00 0.00 0.00 75 1016.8
20211026143811 73 48 1.7 6.1 0.00 0.00 0.00 76 1016.7
20211026143307 72 10 0.9 6.1 0.00 0.00 0.00 76 1016.8
20211026142824 72 88 0.9 6.1 0.00 0.00 0.00 77 1016.8
20211026142322 72 53 1.7 6.1 0.00 0.00 0.00 76 1016.9
20211026141822 72 48 0.9 3.5 0.00 0.00 0.00 77 1016.9
20211026141320 71 20 0.0 5.2 0.00 0.00 0.00 78 1016.9
20211026140819 71 72 0.9 4.3 0.00 0.00 0.00 78 1016.9
20211026140312 71 36 0.9 5.2 0.00 0.00 0.00 80 1016.8
20211026135809 70 343 1.7 5.2 0.00 0.00 0.00 80 1016.8
20211026135308 70 17 0.9 4.3 0.00 0.00 0.00 81 1016.7
20211026134825 70 89 2.6 4.3 0.00 0.00 0.00 81 1016.8
20211026134322 70 141 0.9 4.3 0.00 0.00 0.00 82 1016.7
20211026133822 69 20 1.7 6.1 0.00 0.00 0.00 83 1016.6
20211026133322 69 119 1.7 6.1 0.00 0.00 0.00 83 1016.7
20211026132822 69 97 1.7 4.3 0.00 0.00 0.00 84 1016.6
20211026132321 68 61 1.7 5.2 0.00 0.00 0.00 85 1016.5
20211026131819 68 47 1.7 6.1 0.00 0.00 0.00 84 1016.5
20211026131319 68 44 2.6 6.1 0.00 0.00 0.00 85 1016.4
20211026130817 68 69 0.9 4.3 0.00 0.00 0.00 85 1016.4
20211026130314 68 42 0.9 4.3 0.00 0.00 0.00 85 1016.4
20211026125811 68 80 0.9 3.5 0.00 0.00 0.00 86 1016.3
20211026125310 67 53 0.9 3.5 0.00 0.00 0.00 86 1016.3
20211026124811 67 48 0.0 2.6 0.00 0.00 0.00 86 1016.2
20211026123821 67 49 0.0 1.7 0.00 0.00 0.00 86 1016.1
20211026123318 67 89 0.0 2.6 0.00 0.00 0.00 86 1016.1
20211026122816 68 83 0.0 2.6 0.00 0.00 0.00 86 1016.0
20211026122314 68 76 0.0 3.5 0.00 0.00 0.00 86 1015.9
20211026121813 68 69 0.0 3.5 0.00 0.00 0.00 86 1015.9
20211026121312 68 49 0.0 1.7 0.00 0.00 0.00 86 1015.9
20211026120812 68 69 0.0 3.5 0.00 0.00 0.00 86 1015.9
20211026120311 68 30 0.0 3.5 0.00 0.00 0.00 86 1015.8
20211026115812 68 61 0.9 3.5 0.00 0.00 0.00 86 1015.8
20211026115308 68 59 0.0 2.6 0.00 0.00 0.00 86 1015.8
20211026114827 68 41 0.9 2.6 0.00 0.00 0.00 85 1015.8
20211026114325 68 74 0.0 3.5 0.00 0.00 0.00 85 1015.8
20211026113824 68 53 0.9 3.5 0.00 0.00 0.00 85 1015.8
20211026113324 68 102 0.9 3.5 0.00 0.00 0.00 85 1015.8
20211026112825 68 71 0.0 0.9 0.00 0.00 0.00 84 1015.8
20211026112325 68 66 0.0 0.9 0.00 0.00 0.00 84 1015.7
20211026111825 69 107 0.0 1.7 0.00 0.00 0.00 84 1015.7
20211026111322 69 77 0.0 0.9 0.00 0.00 0.00 83 1015.6
20211026110822 69 64 0.0 2.6 0.00 0.00 0.00 83 1015.5
20211026110317 69 34 0.0 2.6 0.00 0.00 0.00 83 1015.4
20211026105815 69 53 0.9 2.6 0.00 0.00 0.00 83 1015.4
20211026105314 69 76 0.0 1.7 0.00 0.00 0.00 83 1015.3
20211026104812 70 76 0.0 0.9 0.00 0.00 0.00 83 1015.4
20211026104313 70 81 0.0 0.9 0.00 0.00 0.00 83 1015.4
20211026103812 70 82 0.0 0.9 0.00 0.00 0.00 83 1015.2
20211026103309 71 82 0.0 1.7 0.00 0.00 0.00 83 1015.2
20211026102807 71 58 0.0 1.7 0.00 0.00 0.00 83 1015.2
20211026102307 71 61 0.0 2.6 0.00 0.00 0.00 82 1015.1
20211026101823 71 64 0.0 3.5 0.00 0.00 0.00 82 1015.0
20211026101322 71 55 0.9 3.5 0.00 0.00 0.00 82 1015.0
20211026100823 71 51 0.9 4.3 0.00 0.00 0.00 81 1015.0
20211026100322 71 51 0.9 6.1 0.00 0.00 0.00 81 1014.9
20211026095821 71 25 1.7 6.1 0.00 0.00 0.00 81 1014.9
20211026095320 72 54 0.0 3.5 0.00 0.00 0.00 81 1014.8
20211026094819 72 46 0.0 3.5 0.00 0.00 0.00 80 1014.8
20211026094316 72 40 0.0 4.3 0.00 0.00 0.00 80 1014.8
20211026093816 72 26 0.9 4.3 0.00 0.00 0.00 80 1014.8
20211026093314 72 23 0.9 4.3 0.00 0.00 0.00 80 1014.8
20211026092814 72 63 0.0 4.3 0.00 0.00 0.00 79 1014.8
20211026092315 72 56 0.0 4.3 0.00 0.00 0.00 79 1014.7
20211026091815 72 60 0.9 3.5 0.00 0.00 0.00 79 1014.7
20211026091313 72 38 0.9 4.3 0.00 0.00 0.00 79 1014.7
20211026090812 72 49 0.9 4.3 0.00 0.00 0.00 79 1014.7
20211026090309 73 35 0.9 4.3 0.00 0.00 0.00 78 1014.7
20211026085807 73 67 0.0 4.3 0.00 0.00 0.00 78 1014.8
20211026085307 73 355 0.0 2.6 0.00 0.00 0.00 78 1014.9
20211026084826 73 28 0.9 2.6 0.00 0.00 0.00 77 1014.9
20211026084326 73 45 0.0 5.2 0.00 0.00 0.00 77 1014.9
20211026083825 73 77 0.9 4.3 0.00 0.00 0.00 76 1014.9
20211026083325 73 355 0.9 6.1 0.00 0.00 0.00 77 1015.0
20211026082315 73 58 0.0 4.3 0.00 0.00 0.00 78 1015.1
20211026081814 73 9 0.9 3.5 0.00 0.00 0.00 78 1015.1
20211026081313 73 23 0.9 3.5 0.00 0.00 0.00 79 1015.0
20211026080813 74 19 0.9 4.3 0.00 0.00 0.00 79 1015.1
20211026080311 74 39 0.9 5.2 0.00 0.00 0.00 79 1015.0
20211026075820 74 10 0.0 4.3 0.00 0.00 0.00 80 1015.0
20211026075320 74 29 0.9 5.2 0.00 0.00 0.00 81 1014.9
20211026074820 74 30 0.9 5.2 0.00 0.00 0.00 82 1014.8
20211026074318 74 12 1.7 5.2 0.00 0.00 0.00 83 1014.7
20211026073816 74 38 0.0 4.3 0.00 0.00 0.00 83 1014.8
20211026073316 74 17 1.7 4.3 0.00 0.00 0.00 84 1014.8
20211026072815 74 26 1.7 7.0 0.00 0.00 0.00 86 1014.8
20211026072316 74 19 2.6 7.0 0.00 0.00 0.00 87 1014.8
20211026071814 74 17 1.7 7.8 0.00 0.00 0.00 87 1014.8
20211026071314 74 13 1.7 7.8 0.00 0.00 0.00 86 1014.9
20211026070813 73 19 1.7 7.0 0.00 0.00 0.00 83 1014.8
20211026070309 73 16 0.9 3.5 0.00 0.00 0.00 83 1014.8
20211026065808 73 12 0.0 0.0 0.00 0.00 0.00 83 1014.8
20211026065326 73 12 0.0 0.0 0.00 0.00 0.00 84 1014.7
20211026064824 73 12 0.0 0.0 0.00 0.00 0.00 84 1014.8
20211026064324 73 12 0.0 0.0 0.00 0.00 0.00 84 1014.7
20211026063824 73 12 0.0 0.0 0.00 0.00 0.00 84 1014.8
20211026063323 74 12 0.0 0.0 0.00 0.00 0.00 84 1014.7
20211026062823 74 12 0.0 0.0 0.00 0.00 0.00 84 1014.8
20211026062322 74 12 0.0 0.0 0.00 0.00 0.00 85 1014.8
20211026061818 74 12 0.0 0.0 0.00 0.00 0.00 85 1014.8
20211026061319 74 12 0.0 0.0 0.00 0.00 0.00 85 1014.8
20211026060819 74 12 0.0 0.0 0.00 0.00 0.00 86 1014.7
20211026060315 74 12 0.0 0.0 0.00 0.00 0.00 86 1014.8
20211026055812 74 12 0.0 0.0 0.00 0.00 0.00 86 1014.7
20211026055312 74 12 0.0 0.0 0.00 0.00 0.00 86 1014.7
20211026054811 74 12 0.0 0.0 0.00 0.00 0.00 86 1014.7
20211026054311 75 12 0.0 0.0 0.00 0.00 0.00 86 1014.6
20211026053809 75 12 0.0 0.0 0.00 0.00 0.00 86 1014.7
20211026053310 75 12 0.0 0.0 0.00 0.00 0.00 87 1014.7
20211026052810 75 12 0.0 0.0 0.00 0.00 0.00 87 1014.7
20211026052309 75 12 0.0 0.0 0.00 0.00 0.00 87 1014.7
20211026051808 75 12 0.0 0.0 0.00 0.00 0.00 87 1014.7
20211026051309 75 12 0.0 0.0 0.00 0.00 0.00 87 1014.7
20211026050809 76 12 0.0 0.0 0.00 0.00 0.00 87 1014.7
20211026050324 76 12 0.0 0.0 0.00 0.00 0.00 88 1014.8
20211026045816 76 12 0.0 0.0 0.00 0.00 0.00 88 1014.8
20211026045316 76 12 0.0 0.0 0.00 0.00 0.00 87 1014.9
20211026044813 76 12 0.0 0.0 0.00 0.00 0.00 88 1014.8
20211026044312 76 12 0.0 0.9 0.00 0.00 0.00 88 1014.9
20211026043815 76 12 0.0 0.9 0.00 0.00 0.00 88 1015.0
20211026043312 76 12 0.0 1.7 0.00 0.00 0.00 88 1015.0
20211026042812 76 12 0.0 2.6 0.00 0.00 0.00 88 1015.0
20211026042312 76 23 0.0 0.0 0.00 0.00 0.00 88 1015.0
20211026041812 76 23 0.0 0.9 0.00 0.00 0.00 88 1015.0
20211026041312 76 23 0.0 1.7 0.00 0.00 0.00 88 1015.1
20211026040811 76 360 0.0 1.7 0.00 0.00 0.00 88 1015.1
20211026040311 76 355 0.0 0.9 0.00 0.00 0.00 88 1015.1
20211026035809 76 324 0.0 0.0 0.00 0.00 0.00 88 1015.2
20211026035310 76 311 0.0 0.0 0.00 0.00 0.00 88 1015.2
20211026034828 76 311 0.0 0.0 0.00 0.00 0.00 88 1015.2
20211026034327 76 311 0.0 0.0 0.00 0.00 0.00 88 1015.2
20211026033808 76 311 0.0 0.0 0.00 0.00 0.00 88 1015.2
20211026033308 77 311 0.0 0.0 0.00 0.00 0.00 88 1015.1
20211026032808 77 311 0.0 0.0 0.00 0.00 0.00 87 1015.1
20211026032308 77 311 0.0 0.0 0.00 0.00 0.00 87 1015.0
20211026031827 77 311 0.0 0.0 0.00 0.00 0.00 87 1015.0
20211026031327 77 311 0.0 0.0 0.00 0.00 0.00 87 1014.9
20211026030827 77 311 0.0 0.0 0.00 0.00 0.00 87 1014.9
20211026030325 77 311 0.0 0.0 0.00 0.00 0.00 87 1014.8
20211026025824 78 311 0.0 0.9 0.00 0.00 0.00 87 1014.8
20211026025325 78 311 0.0 0.9 0.00 0.00 0.00 87 1014.8
20211026024825 78 311 0.0 0.0 0.00 0.00 0.00 87 1014.8
20211026024325 78 311 0.0 0.0 0.00 0.00 0.00 86 1014.8
20211026023826 78 311 0.0 0.0 0.00 0.00 0.00 86 1014.7
20211026023324 78 311 0.0 0.0 0.00 0.00 0.00 86 1014.6
20211026022823 79 311 0.0 0.0 0.00 0.00 0.00 86 1014.6
20211026022324 79 311 0.0 0.9 0.00 0.00 0.00 85 1014.6
20211026021825 79 311 0.0 0.9 0.00 0.00 0.00 85 1014.6
20211026021326 79 311 0.0 0.9 0.00 0.00 0.00 84 1014.6
20211026020826 79 311 0.0 0.0 0.00 0.00 0.00 84 1014.6
20211026020325 80 322 0.0 1.7 0.00 0.00 0.00 84 1014.6
20211026015824 80 322 0.0 1.7 0.00 0.00 0.00 83 1014.6
20211026015323 80 313 0.0 3.5 0.00 0.00 0.00 83 1014.5
20211026014822 80 360 0.0 3.5 0.00 0.00 0.00 83 1014.5
20211026014323 80 319 0.9 2.6 0.00 0.00 0.00 82 1014.5
20211026013824 80 315 0.0 2.6 0.00 0.00 0.00 82 1014.6
20211026013324 80 313 0.0 2.6 0.00 0.00 0.00 82 1014.5
20211026012824 80 301 0.0 3.5 0.00 0.00 0.00 82 1014.5
20211026011817 80 298 0.0 5.2 0.00 0.00 0.00 82 1014.4
20211026011315 81 270 0.9 5.2 0.00 0.00 0.00 82 1014.4
20211026010813 81 259 0.0 3.5 0.00 0.00 0.00 82 1014.3
20211026010312 81 266 0.0 3.5 0.00 0.00 0.00 82 1014.3
20211026005811 81 306 0.0 3.5 0.00 0.00 0.00 82 1014.2
20211026005311 81 281 0.9 4.3 0.00 0.00 0.00 81 1014.2
20211026004811 81 312 0.9 4.3 0.00 0.00 0.00 81 1014.2
20211026004310 81 271 0.0 4.3 0.00 0.00 0.00 80 1014.2
20211026003808 81 296 0.0 1.7 0.00 0.00 0.00 80 1014.2
20211026003307 81 293 0.0 2.6 0.00 0.00 0.00 79 1014.1
20211026002808 81 269 0.0 2.6 0.00 0.00 0.00 79 1014.0
20211026002307 81 261 0.0 1.7 0.00 0.00 0.00 79 1013.9
20211026001808 81 302 0.0 1.7 0.00 0.00 0.00 79 1013.8
20211026001327 81 300 0.0 0.0 0.00 0.00 0.00 79 1013.7
20211026000827 81 300 0.0 0.9 0.00 0.00 0.00 79 1013.6
20211026000325 81 300 0.0 2.6 0.00 0.00 0.00 80 1013.5
20211025235824 81 292 0.9 2.6 0.00 0.00 0.00 80 1013.4
20211025235325 81 285 0.0 0.9 0.00 0.00 0.00 80 1013.4
20211025234816 81 288 0.0 0.9 0.00 0.00 0.00 80 1013.3
20211025234315 82 302 0.0 0.9 0.00 0.00 0.00 80 1013.2
20211025233816 82 302 0.0 0.0 0.00 0.00 0.00 80 1013.2
20211025233317 82 302 0.0 0.0 0.00 0.00 0.00 80 1013.1
20211025232816 82 302 0.0 0.9 0.00 0.00 0.00 80 1013.1
20211025232317 82 302 0.0 0.9 0.00 0.00 0.00 79 1013.0
20211025231816 82 291 0.0 0.9 0.00 0.00 0.00 79 1013.0
20211025231315 83 49 0.0 2.6 0.00 0.00 0.00 78 1012.9
20211025230325 83 303 0.0 4.3 0.00 0.00 0.00 78 1012.9
20211025225826 83 302 0.9 4.3 0.00 0.00 0.00 77 1012.8
20211025225327 83 288 0.9 4.3 0.00 0.00 0.00 77 1012.7
20211025224826 84 296 1.7 5.2 0.00 0.00 0.00 76 1012.7
20211025224326 84 326 1.7 5.2 0.00 0.00 0.00 76 1012.6
20211025223827 84 284 0.9 4.3 0.00 0.00 0.00 75 1012.6
20211025223327 84 328 0.9 6.1 0.00 0.00 0.00 74 1012.6
20211025222827 85 300 2.6 6.1 0.00 0.00 0.00 74 1012.5
20211025222327 85 294 0.9 5.2 0.00 0.00 0.00 73 1012.5
20211025221827 86 322 2.6 5.2 0.00 0.00 0.00 72 1012.5
20211025221327 86 271 2.6 4.3 0.00 0.00 0.00 71 1012.6
20211025220825 87 296 1.7 4.3 0.00 0.00 0.00 71 1012.6
20211025220324 87 317 0.9 4.3 0.00 0.00 0.00 71 1012.6
20211025215824 86 322 0.9 7.0 0.00 0.00 0.00 71 1012.5
20211025215322 86 285 2.6 5.2 0.00 0.00 0.00 71 1012.5
20211025214822 87 322 1.7 7.0 0.00 0.00 0.00 72 1012.5
20211025214322 87 334 1.7 7.0 0.00 0.00 0.00 71 1012.5
20211025213821 87 269 1.7 5.2 0.00 0.00 0.00 69 1012.5
20211025213321 88 304 1.7 5.2 0.00 0.00 0.00 68 1012.5
20211025212820 89 283 0.9 3.5 0.00 0.00 0.00 68 1012.5
20211025212319 89 306 0.0 3.5 0.00 0.00 0.00 68 1012.4
20211025211817 89 280 0.9 3.5 0.00 0.00 0.00 68 1012.3
20211025211317 88 317 0.9 4.3 0.00 0.00 0.00 68 1012.5
20211025210816 88 38 0.0 5.2 0.00 0.00 0.00 70 1012.5
20211025210314 88 273 1.7 5.2 0.00 0.00 0.00 68 1012.5
20211025205814 88 312 0.9 4.3 0.00 0.00 0.00 70 1012.5
20211025205313 88 319 0.9 6.1 0.00 0.00 0.00 69 1012.6
20211025204813 88 300 2.6 6.1 0.00 0.00 0.00 68 1012.7
20211025204309 88 5 0.0 7.0 0.00 0.00 0.00 70 1012.7
20211025203810 87 308 2.6 7.0 0.00 0.00 0.00 69 1012.7
20211025203310 87 309 0.9 7.8 0.00 0.00 0.00 70 1012.7
20211025202810 87 317 2.6 7.8 0.00 0.00 0.00 70 1012.7
20211025202310 88 333 0.9 6.1 0.00 0.00 0.00 70 1012.6
20211025201828 87 289 2.6 5.2 0.00 0.00 0.00 69 1012.6
20211025201329 87 286 1.7 6.1 0.00 0.00 0.00 69 1012.7
20211025200824 87 279 0.9 4.3 0.00 0.00 0.00 71 1012.7
20211025200321 87 306 1.7 7.8 0.00 0.00 0.00 72 1012.7
20211025195819 87 220 3.5 7.8 0.00 0.00 0.00 71 1012.7
20211025195318 86 5 1.7 5.2 0.00 0.00 0.00 72 1012.7
20211025194818 86 324 2.6 7.0 0.00 0.00 0.00 71 1012.7
20211025194318 86 272 3.5 7.0 0.00 0.00 0.00 71 1012.8
20211025193819 86 344 1.7 9.6 0.00 0.00 0.00 72 1012.8
20211025193327 87 240 3.5 7.8 0.00 0.00 0.00 71 1012.8
20211025192827 87 286 2.6 7.8 0.00 0.00 0.00 71 1012.9
20211025192327 86 302 0.9 6.1 0.00 0.00 0.00 73 1012.9
20211025191827 86 300 2.6 7.0 0.00 0.00 0.00 73 1013.0
20211025191326 87 267 4.3 7.0 0.00 0.00 0.00 70 1013.0
20211025190825 88 317 0.0 2.6 0.00 0.00 0.00 72 1013.0